"2009-03-02 00:00:30",674263,2.383,196.8,4.02,0.31,13.95,105.9175,14.42,15.29,11.13,0,110.4,13.34,15.22,158.8
"2009-03-02 00:01:00",674264,2.635,191.7,7.035,0.33,13.82,105.917,14.42,15.3,11.14,0,110.4,13.34,15.22,153.7
"2009-03-02 00:01:30",674265,2.963,181.2,3.147,0.102,13.79,105.9137,14.41,15.32,11.14,0,110.4,13.34,15.21,143.2
"2009-03-02 00:02:00",674266,2.909,177.6,2.517,0.101,13.72,105.9174,14.42,15.35,11.12,0,110.4,13.34,15.22,139.6
"2009-03-02 00:02:30",674267,3.316,180.1,4.27,0.213,13.96,105.9308,14.46,15.36,11.12,0,110.4,13.34,15.26,142.1
"2009-03-02 00:03:00",674268,2.926,186.8,3.093,0.172,13.98,105.9376,14.47,15.38,11.07,0,110.4,13.34,15.28,148.8
"2009-03-02 00:03:30",674269,2.833,179.1,2.829,0.097,13.85,105.9427,14.49,15.39,11.03,0,110.4,13.34,15.29,141.1
"2009-03-02 00:04:00",674270,2.917,173.3,1.547,0.094,13.83,105.9415,14.48,15.4,11.03,0,110.4,13.34,15.29,135.3
"2009-03-02 00:04:30",674271,2.991,168.2,1.4,0.077,13.84,105.9364,14.47,15.42,11.02,0,110.4,13.34,15.27,130.2
"2009-03-02 00:05:00",674272,2.935,161.9,2.755,0.115,13.85,105.9442,14.49,15.43,11.01,0,110.4,13.34,15.29,123.9
"2009-03-02 00:05:30",674273,2.501,158.5,4.078,0.194,13.84,105.9567,14.52,15.45,10.99,0,110.4,13.34,15.32,120.5
"2009-03-02 00:06:00",674274,2.408,177.9,13.33,0.247,13.94,105.9659,14.55,15.47,10.96,0,110.4,13.34,15.35,139.9
"2009-03-02 00:06:30",674275,2.277,162.3,6.122,0.24,13.87,105.9652,14.54,15.47,10.93,0,110.4,13.34,15.35,124.3
"2009-03-02 00:07:00",674276,2.07,169.2,11.3,0.426,13.88,105.9664,14.55,15.51,10.93,0,110.4,13.33,15.35,131.2
"2009-03-02 00:07:30",674277,2.743,170.3,1.829,0.12,13.88,105.9691,14.55,15.52,10.89,0,110.4,13.33,15.36,132.3
"2009-03-02 00:08:00",674278,2.67,168.5,3.44,0.202,13.82,105.9814,14.59,15.54,10.84,0,110.4,13.33,15.39,130.5
"2009-03-02 00:08:30",674279,2.581,172.1,7.86,0.163,13.73,105.9903,14.61,15.55,10.82,0,110.4,13.33,15.41,134.1
"2009-03-02 00:09:00",674280,2.439,171.1,7.66,0.287,13.6,105.9948,14.62,15.56,10.81,0,110.4,13.33,15.42,133.1
"2009-03-02 00:09:30",674281,2.95,165.2,8.33,0.289,13.67,105.9939,14.62,15.58,10.87,0,110.4,13.33,15.42,127.2
"2009-03-02 00:10:00",674282,2.84,179.3,4.02,0.185,13.95,105.9964,14.62,15.6,10.83,0,110.4,13.33,15.43,141.3
"2009-03-02 00:10:30",674283,2.893,178.2,2.837,0.15,13.85,106.0102,14.66,15.62,10.78,0,110.4,13.33,15.46,140.2
"2009-03-02 00:11:00",674284,2.576,168.1,7.659,0.199,13.75,106.0189,14.68,15.62,10.78,0,110.4,13.33,15.48,130.1
"2009-03-02 00:11:30",674285,2.462,167.8,6.168,0.195,13.66,106.0251,14.7,15.64,10.79,0,110.4,13.33,15.50,129.8
"2009-03-02 00:12:00",674286,2.546,173,3.018,0.128,13.72,106.0259,14.7,15.66,10.79,0,110.4,13.33,15.50,135.0
"2009-03-02 00:12:30",674287,2.504,186.5,8.9,0.146,13.8,106.0253,14.7,15.67,10.78,0,110.4,13.34,15.50,148.5
"2009-03-02 00:13:00",674288,2.311,194.9,6.924,0.191,13.82,106.0244,14.7,15.66,10.77,0,110.4,13.34,15.50,156.9
"2009-03-02 00:13:30",674289,2.323,205.9,4.161,0.104,13.69,106.0232,14.69,15.69,10.76,0,110.4,13.34,15.50,167.9
"2009-03-02 00:14:00",674290,2.045,208.9,2.302,0.075,14.06,106.0249,14.7,15.69,10.74,0,110.4,13.34,15.50,170.9
"2009-03-02 00:14:30",674291,1.951,205.6,4.926,0.152,13.93,106.041,14.74,15.7,10.74,0,110.4,13.34,15.54,167.6
"2009-03-02 00:15:00",674292,2.225,211.3,3.828,0.102,13.86,106.0474,14.75,15.72,10.71,0,110.4,13.34,15.56,173.3
"2009-03-02 00:15:30",674293,2.04,208,7.832,0.158,13.95,106.0532,14.77,15.72,10.69,0,110.4,13.34,15.57,170.0
"2009-03-02 00:16:00",674294,1.695,170.9,14.11,0.128,13.8,106.0535,14.77,15.74,10.71,0,110.4,13.34,15.57,132.9
"2009-03-02 00:16:30",674295,1.511,161.4,9.53,0.202,13.93,106.0529,14.77,15.75,10.71,0,110.4,13.34,15.57,123.4
"2009-03-02 00:17:00",674296,1.444,188.7,5.516,0.266,14.16,106.0511,14.76,15.74,10.64,0,110.4,13.34,15.57,150.7
"2009-03-02 00:17:30",674297,1.359,191.2,8.56,0.165,14.18,106.0517,14.77,15.74,10.59,0,110.4,13.33,15.57,153.2
"2009-03-02 00:18:00",674298,0.683,207,17.64,0.283,14.18,106.0497,14.76,15.75,10.56,0,110.4,13.33,15.56,169.0
"2009-03-02 00:18:30",674299,0.544,214,7.118,0.084,14.14,106.0508,14.76,15.74,10.61,0,110.4,13.33,15.57,176.0
"2009-03-02 00:19:00",674300,0.446,236.3,14.25,0.11,14.1,106.0514,14.76,15.76,10.64,0,110.5,13.33,15.57,198.3
"2009-03-02 00:19:30",674301,1.106,197.3,22.29,0.296,14.25,106.052,14.77,15.75,10.65,0,110.5,13.33,15.57,159.3
"2009-03-02 00:20:00",674302,1.921,189.3,10.74,0.357,14.35,106.0514,14.76,15.77,10.58,0,110.5,13.33,15.57,151.3
"2009-03-02 00:20:30",674303,2.659,178.9,4.024,0.384,14.44,106.0457,14.75,15.75,10.53,0,110.5,13.33,15.55,140.9
"2009-03-02 00:21:00",674304,1.725,175.1,18.92,0.35,14.29,106.0328,14.72,15.74,10.5,0,110.5,13.33,15.52,137.1
"2009-03-02 00:21:30",674305,1.164,156.3,8.06,0.152,14.19,106.0227,14.69,15.73,10.51,0,110.5,13.33,15.49,118.3
"2009-03-02 00:22:00",674306,1.208,171.9,17.71,0.26,14.24,106.0182,14.68,15.72,10.52,0,110.5,13.33,15.48,133.9
"2009-03-02 00:22:30",674307,1.317,194.4,11.12,0.454,14.22,106.0179,14.68,15.73,10.53,0,110.5,13.33,15.48,156.4
"2009-03-02 00:23:00",674308,1.194,241.7,20.85,0.168,14.21,106.0176,14.68,15.71,10.55,0,110.5,13.33,15.48,203.7
"2009-03-02 00:23:30",674309,1.051,253.2,17.75,0.209,14.18,106.0176,14.68,15.7,10.56,0,110.5,13.33,15.48,215.2
"2009-03-02 00:24:00",674310,0.827,213.8,7.619,0.119,14.24,106.0176,14.68,15.7,10.57,0,110.5,13.33,15.48,175.8
"2009-03-02 00:24:30",674311,0.843,205.7,8.52,0.092,14.23,106.0176,14.68,15.69,10.59,0,110.5,13.33,15.48,167.7
"2009-03-02 00:25:00",674312,0.933,215.7,2.483,0.119,14.27,106.0176,14.68,15.69,10.59,0,110.5,13.33,15.48,177.7
"2009-03-02 00:25:30",674313,1.215,225.5,4.952,0.116,14.2,106.0179,14.68,15.7,10.57,0,110.5,13.33,15.48,187.5
"2009-03-02 00:26:00",674314,1.133,222.1,5.148,0.132,14.22,106.0176,14.68,15.71,10.58,0,110.5,13.33,15.48,184.1
"2009-03-02 00:26:30",674315,1.077,207.1,6.339,0.211,14.37,106.0176,14.68,15.7,10.6,0,110.4,13.33,15.48,169.1
"2009-03-02 00:27:00",674316,0.347,200.1,17.11,0.148,14.25,106.017,14.68,15.68,10.6,0,110.5,13.33,15.48,162.1
"2009-03-02 00:27:30",674317,0.891,225.5,8.76,0.167,14.42,106.0167,14.68,15.69,10.61,0,110.5,13.33,15.48,187.5
"2009-03-02 00:28:00",674318,1.05,229.8,4.259,0.163,14.47,106.0159,14.67,15.68,10.63,0,110.5,13.33,15.48,191.8
"2009-03-02 00:28:30",674319,1.052,225,12.01,0.236,14.59,106.0114,14.66,15.69,10.63,0,110.5,13.33,15.47,187.0
"2009-03-02 00:29:00",674320,1.348,228.5,6.636,0.164,14.7,106.0069,14.65,15.69,10.65,0,110.5,13.33,15.45,190.5
"2009-03-02 00:29:30",674321,1.38,240.6,6.714,0.163,14.71,105.9925,14.61,15.67,10.65,0,110.5,13.33,15.42,202.6
"2009-03-02 00:30:00",674322,1.736,243.7,7.307,0.251,14.75,105.9846,14.59,15.68,10.65,0,110.5,13.33,15.40,205.7
"2009-03-02 00:30:30",674323,1.2,238.4,10.72,0.311,14.65,105.9844,14.59,15.66,10.65,0,110.5,13.33,15.40,200.4
"2009-03-02 00:31:00",674324,1.028,237.9,11.81,0.271,14.58,105.9847,14.59,15.66,10.66,0,110.5,13.33,15.40,199.9
"2009-03-02 00:31:30",674325,0.929,201.9,8.4,0.127,14.37,105.9853,14.6,15.64,10.64,0,110.4,13.33,15.40,163.9
"2009-03-02 00:32:00",674326,0.925,199,6.274,0.114,14.25,105.9811,14.58,15.65,10.64,0,110.4,13.33,15.39,161.0
"2009-03-02 00:32:30",674327,0.459,206.1,13.4,0.231,14.32,105.9674,14.55,15.62,10.65,0,110.5,13.33,15.35,168.1
"2009-03-02 00:33:00",674328,0.417,204.7,8.42,0.159,14.15,105.9535,14.51,15.6,10.66,0,110.4,13.33,15.32,166.7
"2009-03-02 00:33:30",674329,0.477,188.5,7.528,0.11,14.2,105.9562,14.52,15.59,10.67,0,110.5,13.34,15.32,150.5
"2009-03-02 00:34:00",674330,0.75,183,8.81,0.078,14.27,105.9549,14.52,15.55,10.7,0,110.4,13.33,15.32,145.0
"2009-03-02 00:34:30",674331,0.878,159.8,19.81,0.317,14.19,105.9447,14.49,15.54,10.73,0,110.4,13.34,15.29,121.8
"2009-03-02 00:35:00",674332,1.739,227.1,12.17,0.318,14.29,105.9335,14.46,15.54,10.74,0,110.4,13.34,15.27,189.1
"2009-03-02 00:35:30",674333,1.244,236.8,17.25,0.234,14.33,105.9265,14.44,15.53,10.75,0,110.4,13.34,15.25,198.8
"2009-03-02 00:36:00",674334,1.596,220.8,12.76,0.23,14.29,105.9251,14.44,15.5,10.74,0,110.4,13.34,15.24,182.8
"2009-03-02 00:36:30",674335,2.075,223.3,7.447,0.215,14.33,105.926,14.44,15.49,10.75,0,110.4,13.34,15.25,185.3
"2009-03-02 00:37:00",674336,2.033,232.7,6.045,0.189,14.4,105.926,14.44,15.47,10.75,0,110.4,13.34,15.25,194.7
"2009-03-02 00:37:30",674337,1.802,245.3,11.7,0.288,14.39,105.9251,14.44,15.47,10.77,0,110.4,13.34,15.24,207.3
"2009-03-02 00:38:00",674338,1.501,247,6.486,0.127,14.46,105.9204,14.43,15.45,10.78,0,110.4,13.34,15.23,209.0
"2009-03-02 00:38:30",674339,1.843,235.1,3.903,0.193,14.53,105.9098,14.4,15.45,10.76,0,110.4,13.34,15.20,197.1
"2009-03-02 00:39:00",674340,1.299,246.8,8.45,0.265,14.46,105.8948,14.36,15.43,10.77,0,110.4,13.34,15.17,208.8
"2009-03-02 00:39:30",674341,0.813,235.2,9.82,0.129,14.52,105.8919,14.36,15.44,10.78,0,110.4,13.34,15.16,197.2
"2009-03-02 00:40:00",674342,0.942,239.5,4.81,0.146,14.52,105.8997,14.38,15.45,10.83,0,110.4,13.33,15.18,201.5
"2009-03-02 00:40:30",674343,2.851,252.9,13.41,1.301,17.61,105.896,14.37,15.6,11.02,0,110.4,13.29,15.17,214.9
"2009-03-02 00:41:00",674344,1.863,249,7.869,1.015,15.84,105.8893,14.35,15.57,11,0,110.4,13.29,15.15,211.0
"2009-03-02 00:41:30",674345,1.264,236.6,14.12,1.025,14.17,105.8862,14.34,15.37,10.82,0,110.4,13.29,15.14,198.6
"2009-03-02 00:42:00",674346,1.332,228.8,9.8,0.162,13.37,105.8756,14.31,15.41,10.9,0,110.4,13.33,15.12,190.8
"2009-03-02 00:42:30",674347,2.241,233.6,7.49,1.444,15.7,105.8781,14.32,15.42,10.92,0,110.4,13.29,15.12,195.6
"2009-03-02 00:43:00",674348,1.355,254,9.58,0.981,14.19,105.873,14.31,15.45,11.01,0,110.4,13.29,15.11,216.0
"2009-03-02 00:43:30",674349,2.853,257.1,11.21,1.386,14.53,105.8621,14.28,15.48,11.06,0,110.4,13.29,15.08,219.1
"2009-03-02 00:44:00",674350,1.356,248.5,9.61,0.311,12.01,105.8502,14.25,15.29,10.87,0,110.4,13.33,15.05,210.5
"2009-03-02 00:44:30",674351,1.406,234.6,9.04,0.249,11.72,105.8502,14.25,15.27,10.88,0,110.4,13.33,15.05,196.6
"2009-03-02 00:45:00",674352,1.489,221.7,2.697,0.125,11.84,105.8505,14.25,15.25,10.88,0,110.4,13.33,15.05,183.7
"2009-03-02 00:45:30",674353,1.461,212.8,3.144,0.165,12.15,105.8466,14.24,15.23,10.9,0,110.4,13.33,15.04,174.8
"2009-03-02 00:46:00",674354,1.295,209.4,2.801,0.152,12.36,105.8319,14.2,15.22,10.91,0,110.4,13.33,15.00,171.4
"2009-03-02 00:46:30",674355,1.157,210.2,6.756,0.094,12.82,105.8167,14.16,15.2,10.91,0,110.4,13.34,14.96,172.2
"2009-03-02 00:47:00",674356,1.093,209.2,7.585,0.102,13.12,105.8167,14.16,15.2,10.92,0,110.4,13.34,14.96,171.2
"2009-03-02 00:47:30",674357,1.334,214.6,6.645,0.121,13.3,105.8164,14.16,15.19,10.92,0,110.4,13.34,14.96,176.6
"2009-03-02 00:48:00",674358,1.749,206.1,8.67,0.173,13.49,105.7998,14.12,15.17,10.95,0,110.4,13.34,14.92,168.1
"2009-03-02 00:48:30",674359,2.057,203.5,4.04,0.201,13.85,105.7829,14.08,15.15,10.99,0,110.4,13.34,14.88,165.5
"2009-03-02 00:49:00",674360,2.37,211.8,6.28,0.185,13.99,105.7829,14.08,15.13,11.01,0,110.4,13.34,14.88,173.8
"2009-03-02 00:49:30",674361,2.582,213.6,3.375,0.158,14.1,105.7812,14.07,15.11,11.02,0,110.4,13.34,14.87,175.6
"2009-03-02 00:50:00",674362,2.963,218.4,4.377,0.941,14.91,105.7615,14.02,15.17,11.11,0,110.4,13.31,14.82,180.4
"2009-03-02 00:50:30",674363,4.122,208.4,9.73,1.378,16.21,105.7491,13.99,15.14,11.12,0,110.4,13.31,14.79,170.4
"2009-03-02 00:51:00",674364,3.967,209.8,7.403,1.39,16.28,105.7491,13.99,15.16,11.17,0,110.4,13.31,14.79,171.8
"2009-03-02 00:51:30",674365,2.582,205.1,2.506,0.145,13.65,105.7451,13.98,15.14,11.17,0,110.4,13.34,14.78,167.1
"2009-03-02 00:52:00",674366,2.705,209.4,2.243,0.118,13.28,105.726,13.93,15.01,11.09,0,110.4,13.34,14.73,171.4
"2009-03-02 00:52:30",674367,3.836,217,9.08,1.377,15.53,105.7152,13.9,15.13,11.21,0,110.4,13.31,14.70,179.0
"2009-03-02 00:53:00",674368,2.92,206.9,4.444,0.809,14.4,105.7152,13.9,15.13,11.25,0,110.4,13.31,14.70,168.9
"2009-03-02 00:53:30",674369,2.965,211.1,5.519,1.032,14.08,105.7127,13.9,15.09,11.23,0,110.4,13.31,14.70,173.1
"2009-03-02 00:54:00",674370,3.694,213.2,7.548,1.231,14.07,105.6893,13.84,14.95,11.12,0,110.4,13.31,14.64,175.2
"2009-03-02 00:54:30",674371,2.564,206.7,2.203,0.23,12.33,105.6814,13.82,14.91,11.11,0,110.4,13.34,14.62,168.7
"2009-03-02 00:55:00",674372,2.808,209.5,2.927,0.104,12.38,105.6814,13.82,14.9,11.11,0,110.4,13.34,14.62,171.5
"2009-03-02 00:55:30",674373,2.439,214.9,3.028,0.071,12.67,105.6812,13.82,14.88,11.12,0,110.4,13.34,14.62,176.9
"2009-03-02 00:56:00",674374,2.505,204.5,2.422,0.102,12.76,105.6702,13.79,14.86,11.13,0,110.4,13.34,14.59,166.5
"2009-03-02 00:56:30",674375,2.514,202.4,1.99,0.052,12.85,105.6488,13.73,14.85,11.11,0,110.4,13.34,14.53,164.4
"2009-03-02 00:57:00",674376,2.451,201.1,1.125,0.053,13.17,105.6479,13.73,14.83,11.1,0,110.4,13.34,14.53,163.1
"2009-03-02 00:57:30",674377,2.287,199.4,1.597,0.076,13.87,105.6482,13.73,14.81,11.1,0,110.4,13.34,14.53,161.4
"2009-03-02 00:58:00",674378,2.156,201.6,2.111,0.119,13.99,105.6485,13.73,14.8,11.11,0,110.4,13.34,14.53,163.6
"2009-03-02 00:58:30",674379,3.124,211.1,7.785,1.314,16.51,105.6362,13.7,14.92,11.26,0,110.3,13.31,14.50,173.1
"2009-03-02 00:59:00",674380,2.391,220,7.595,1.162,15.39,105.6281,13.68,14.95,11.32,0,110.3,13.31,14.48,182.0
"2009-03-02 00:59:30",674381,2.717,233.1,6.068,1.303,15.62,105.6191,13.66,14.91,11.35,0,110.3,13.31,14.46,195.1
"2009-03-02 01:00:00",674382,2.534,236.3,8.66,0.28,13.65,105.6251,13.67,14.75,11.2,0,110.3,13.34,14.47,198.3
"2009-03-02 01:00:30",674383,2.625,232.9,4.413,0.265,13.45,105.6248,13.67,14.73,11.21,0,110.3,13.34,14.47,194.9
"2009-03-02 01:01:00",674384,3.076,236.3,4.207,0.253,13.57,105.6296,13.68,14.73,11.21,0,110.3,13.34,14.48,198.3
"2009-03-02 01:01:30",674385,2.57,234,12.6,0.319,13.77,105.627,13.68,14.71,11.23,0,110.3,13.34,14.48,196.0
"2009-03-02 01:02:00",674386,2.044,222.4,3.789,0.192,13.76,105.6235,13.67,14.69,11.23,0,110.3,13.35,14.47,184.4
"2009-03-02 01:02:30",674387,2.08,219,4.467,0.105,13.92,105.6143,13.65,14.68,11.24,0,110.3,13.35,14.44,181.0
"2009-03-02 01:03:00",674388,2.376,233.9,6.446,0.214,14.21,105.6085,13.63,14.67,11.24,0,110.3,13.35,14.43,195.9
"2009-03-02 01:03:30",674389,2.372,229.3,4.542,0.173,14.22,105.6118,13.64,14.66,11.24,0,110.3,13.35,14.44,191.3
"2009-03-02 01:04:00",674390,2.535,239.8,6.125,0.172,14.34,105.6136,13.64,14.67,11.24,0,110.3,13.35,14.44,201.8
"2009-03-02 01:04:30",674391,2.864,239.4,2.712,0.152,14.42,105.6145,13.65,14.65,11.24,0,110.3,13.35,14.45,201.4
"2009-03-02 01:05:00",674392,2.901,246.9,5.543,1.048,15.1,105.6145,13.65,14.67,11.27,0,110.3,13.32,14.45,208.9
"2009-03-02 01:05:30",674393,3.513,245.4,9.04,1.285,17.08,105.6151,13.65,14.84,11.41,0,110.2,13.32,14.45,207.4
"2009-03-02 01:06:00",674394,2.971,244.8,11.24,1.425,15.43,105.6157,13.65,14.67,11.26,0,110.3,13.32,14.45,206.8
"2009-03-02 01:06:30",674395,2.458,232.7,6.414,1.096,14.72,105.6157,13.65,14.83,11.41,0,110.3,13.32,14.45,194.7
"2009-03-02 01:07:00",674396,1.876,222.4,3.692,0.187,13.07,105.6157,13.65,14.65,11.23,0,110.3,13.35,14.45,184.4
"2009-03-02 01:07:30",674397,2.361,215.3,8.03,0.154,13.16,105.6157,13.65,14.63,11.22,0,110.3,13.35,14.45,177.3
"2009-03-02 01:08:00",674398,4.062,215.3,8.87,1.369,15.74,105.6157,13.65,14.7,11.28,0,110.3,13.32,14.45,177.3
"2009-03-02 01:08:30",674399,4.487,214.3,6.601,1.405,15.72,105.6157,13.65,14.81,11.41,0,110.3,13.32,14.45,176.3
"2009-03-02 01:09:00",674400,3.235,216.8,7.362,0.585,14.22,105.6157,13.65,14.78,11.37,0,110.3,13.35,14.45,178.8
"2009-03-02 01:09:30",674401,2.697,217.2,4.39,0.088,12.84,105.6157,13.65,14.63,11.25,0,110.3,13.35,14.45,179.2
"2009-03-02 01:10:00",674402,2.462,217.6,7.593,0.236,12.99,105.6154,13.65,14.62,11.25,0,110.3,13.35,14.45,179.6
"2009-03-02 01:10:30",674403,2.369,213.9,4.902,0.153,13.17,105.6154,13.65,14.62,11.26,0,110.3,13.35,14.45,175.9
"2009-03-02 01:11:00",674404,2.416,212.4,2.887,0.13,13.13,105.6154,13.65,14.62,11.25,0,110.3,13.35,14.45,174.4
"2009-03-02 01:11:30",674405,2.355,223.7,3.95,0.123,13.6,105.614,13.64,14.61,11.25,0,110.3,13.36,14.44,185.7
"2009-03-02 01:12:00",674406,2.283,229.3,3.381,0.145,13.81,105.6103,13.63,14.62,11.27,0,110.3,13.36,14.43,191.3
"2009-03-02 01:12:30",674407,2.245,235.6,8.26,0.092,14.08,105.6053,13.62,14.62,11.26,0,110.3,13.36,14.42,197.6
"2009-03-02 01:13:00",674408,2.273,240.9,7.68,0.177,14.21,105.6033,13.62,14.61,11.27,0,110.3,13.36,14.42,202.9
"2009-03-02 01:13:30",674409,2.028,252.9,6.654,0.239,14.36,105.6041,13.62,14.61,11.28,0,110.3,13.36,14.42,214.9
"2009-03-02 01:14:00",674410,1.831,250.8,5.31,0.181,14.55,105.6024,13.61,14.62,11.27,0,110.3,13.36,14.41,212.8
"2009-03-02 01:14:30",674411,1.967,235.9,1.666,0.161,14.57,105.603,13.62,14.61,11.27,0,110.3,13.36,14.42,197.9
"2009-03-02 01:15:00",674412,2.044,233.3,4.826,0.19,14.65,105.6024,13.61,14.61,11.27,0,110.3,13.36,14.41,195.3
"2009-03-02 01:15:30",674413,2.469,237.4,3.156,0.202,14.65,105.6019,13.61,14.62,11.27,0,110.3,13.36,14.41,199.4
"2009-03-02 01:16:00",674414,2.342,241.5,2.377,0.126,14.85,105.6036,13.62,14.61,11.27,0,110.3,13.36,14.42,203.5
"2009-03-02 01:16:30",674415,2.502,234.9,4.97,0.14,14.81,105.6013,13.61,14.61,11.28,0,110.3,13.36,14.41,196.9
"2009-03-02 01:17:00",674416,2.29,236.2,4.498,0.083,14.92,105.6027,13.62,14.63,11.28,0,110.3,13.36,14.41,198.2
"2009-03-02 01:17:30",674417,2.785,238.2,2.17,0.199,14.94,105.6036,13.62,14.63,11.26,0,110.3,13.36,14.42,200.2
"2009-03-02 01:18:00",674418,2.827,238,2.668,0.079,14.99,105.5999,13.61,14.65,11.27,0,110.3,13.36,14.41,200.0
"2009-03-02 01:18:30",674419,2.571,241.3,3.435,0.067,14.94,105.6039,13.62,14.62,11.27,0,110.3,13.36,14.42,203.3
"2009-03-02 01:19:00",674420,2.462,239.7,1.975,0.084,14.98,105.6036,13.62,14.63,11.27,0,110.3,13.37,14.42,201.7
"2009-03-02 01:19:30",674421,2.252,241.6,3.629,0.683,15.49,105.6048,13.62,14.7,11.35,0,110.3,13.33,14.42,203.6
"2009-03-02 01:20:00",674422,2.888,241.7,7.024,1.249,16.12,105.6035,13.62,14.72,11.36,0,110.3,13.33,14.42,203.7
"2009-03-02 01:20:30",674423,2.636,246.7,8.02,1.353,16.32,105.6026,13.62,14.79,11.41,0,110.3,13.33,14.41,208.7
"2009-03-02 01:21:00",674424,4.483,255.9,7.611,0.935,19.01,105.5967,13.6,14.91,11.51,0,110.3,13.33,14.40,217.9
"2009-03-02 01:21:30",674425,3.782,265.3,6.382,1.38,17.08,105.5986,13.6,14.85,11.46,0,110.3,13.33,14.40,227.3
"2009-03-02 01:22:00",674426,2.418,252.4,2.201,0.083,12.98,105.5984,13.6,14.72,11.33,0,110.3,13.36,14.40,214.4
"2009-03-02 01:22:30",674427,2.164,250.2,3.072,0.102,12.2,105.5991,13.61,14.63,11.26,0,110.3,13.36,14.41,212.2
"2009-03-02 01:23:00",674428,2.049,238,5.091,0.111,11.97,105.5975,13.6,14.64,11.24,0,110.3,13.36,14.40,200.0
"2009-03-02 01:23:30",674429,1.968,243.7,4.317,0.135,12.29,105.5937,13.59,14.64,11.25,0,110.3,13.36,14.39,205.7
"2009-03-02 01:24:00",674430,2.066,235.6,3.105,0.076,12.5,105.5946,13.59,14.64,11.25,0,110.3,13.37,14.39,197.6
"2009-03-02 01:24:30",674431,2.34,249.1,6.12,0.169,12.81,105.5949,13.6,14.64,11.26,0,110.3,13.37,14.39,211.1
"2009-03-02 01:25:00",674432,2.699,270,4.874,0.134,13.37,105.5993,13.61,14.64,11.26,0,110.3,13.37,14.41,232.0
"2009-03-02 01:25:30",674433,2.25,264,4.935,0.172,13.64,105.6014,13.61,14.64,11.24,0,110.3,13.37,14.41,226.0
"2009-03-02 01:26:00",674434,2.594,269.6,4.953,0.161,13.95,105.6066,13.63,14.64,11.24,0,110.3,13.37,14.42,231.6
"2009-03-02 01:26:30",674435,2.533,270.1,4.146,0.231,14.17,105.6182,13.66,14.65,11.25,0,110.3,13.37,14.45,232.1
"2009-03-02 01:27:00",674436,2.233,260.8,4.638,0.238,14.27,105.6234,13.67,14.65,11.24,0,110.3,13.37,14.47,222.8
"2009-03-02 01:27:30",674437,1.996,260.8,3.888,0.098,14.36,105.626,13.67,14.65,11.25,0,110.3,13.37,14.47,222.8
"2009-03-02 01:28:00",674438,2.151,247.8,3.59,0.186,14.36,105.6286,13.68,14.67,11.25,0,110.3,13.37,14.48,209.8
"2009-03-02 01:28:30",674439,2.421,248.4,3.11,0.093,14.5,105.6346,13.7,14.67,11.24,0,110.3,13.37,14.50,210.4
"2009-03-02 01:29:00",674440,2.502,251.2,2.254,0.095,14.59,105.6385,13.71,14.68,11.25,0,110.3,13.37,14.51,213.2
"2009-03-02 01:29:30",674441,2.21,245.9,1.753,0.109,14.72,105.6454,13.72,14.68,11.24,0,110.3,13.37,14.52,207.9
"2009-03-02 01:30:00",674442,2.326,242.3,2.314,0.139,14.8,105.6473,13.73,14.67,11.24,0,110.3,13.37,14.53,204.3
"2009-03-02 01:30:30",674443,2.456,243,2.616,0.112,14.87,105.65,13.74,14.67,11.24,0,110.3,13.37,14.54,205.0
"2009-03-02 01:31:00",674444,2.365,240.4,3.8,0.108,14.94,105.6514,13.74,14.67,11.24,0,110.3,13.37,14.54,202.4
"2009-03-02 01:31:30",674445,2.465,243.1,2.065,0.123,15.01,105.6511,13.74,14.68,11.23,0,110.3,13.37,14.54,205.1
"2009-03-02 01:32:00",674446,2.755,251.5,5.275,0.774,15.44,105.6514,13.74,14.72,11.28,0,110.3,13.33,14.54,213.5
"2009-03-02 01:32:30",674447,3.512,257.9,6.052,1.281,17.03,105.6511,13.74,14.8,11.33,0,110.3,13.33,14.54,219.9
"2009-03-02 01:33:00",674448,2.459,255.4,1.823,0.078,14.84,105.6514,13.74,14.69,11.22,0,110.3,13.37,14.54,217.4
"2009-03-02 01:33:30",674449,2.514,258.4,2.221,0.062,14.67,105.6514,13.74,14.7,11.23,0,110.3,13.37,14.54,220.4
"2009-03-02 01:34:00",674450,2.423,257.3,1.366,0.077,14.67,105.6514,13.74,14.7,11.22,0,110.3,13.37,14.54,219.3
"2009-03-02 01:34:30",674451,2.322,258.9,1.209,0.051,14.73,105.6514,13.74,14.71,11.22,0,110.3,13.37,14.54,220.9
"2009-03-02 01:35:00",674452,2.331,255.2,1.8,0.128,14.69,105.6514,13.74,14.71,11.22,0,110.3,13.37,14.54,217.2
"2009-03-02 01:35:30",674453,3.001,262.2,6.899,1.145,15.87,105.6514,13.74,14.74,11.25,0,110.3,13.34,14.54,224.2
"2009-03-02 01:36:00",674454,2.99,265.8,5.263,1.05,15.9,105.6514,13.74,14.85,11.38,0,110.2,13.34,14.54,227.8
"2009-03-02 01:36:30",674455,2.812,262.7,6.771,1.307,15.89,105.6514,13.74,14.73,11.24,0,110.3,13.34,14.54,224.7
"2009-03-02 01:37:00",674456,1.973,257,3.143,0.115,14.41,105.6514,13.74,14.72,11.23,0,110.3,13.37,14.54,219.0
"2009-03-02 01:37:30",674457,1.87,257,2.036,0.056,14.3,105.6514,13.74,14.71,11.23,0,110.3,13.37,14.54,219.0
"2009-03-02 01:38:00",674458,1.82,255.4,1.209,0.062,14.27,105.6514,13.74,14.73,11.21,0,110.3,13.37,14.54,217.4
"2009-03-02 01:38:30",674459,1.925,253.7,1.565,0.043,14.22,105.6514,13.74,14.74,11.21,0,110.3,13.37,14.54,215.7
"2009-03-02 01:39:00",674460,1.95,257.5,2.194,0.079,14.19,105.6514,13.74,14.73,11.18,0,110.3,13.38,14.54,219.5
"2009-03-02 01:39:30",674461,1.951,250.3,2.017,0.036,14.15,105.6514,13.74,14.74,11.18,0,110.3,13.38,14.54,212.3
"2009-03-02 01:40:00",674462,2.049,246.6,0.903,0.062,14.27,105.6514,13.74,14.73,11.18,0,110.3,13.38,14.54,208.6
"2009-03-02 01:40:30",674463,2.574,248.3,4.53,0.964,14.87,105.6514,13.74,14.73,11.19,0,110.3,13.34,14.54,210.3
"2009-03-02 01:41:00",674464,2.861,249.7,5.349,1.1,15.86,105.6514,13.74,14.9,11.36,0,110.3,13.34,14.54,211.7
"2009-03-02 01:41:30",674465,3.683,252.2,6.677,1.304,16.54,105.6514,13.74,14.79,11.24,0,110.3,13.34,14.54,214.2
"2009-03-02 01:42:00",674466,3.066,245.2,5.982,1.1,14.32,105.6514,13.74,14.78,11.25,0,110.3,13.34,14.54,207.2
"2009-03-02 01:42:30",674467,3.083,244.4,7.184,1.197,14.85,105.6497,13.74,14.82,11.27,0,110.3,13.34,14.54,206.4
"2009-03-02 01:43:00",674468,2.446,239.6,1.312,0.073,13.1,105.6438,13.72,14.73,11.2,0,110.3,13.38,14.52,201.6
"2009-03-02 01:43:30",674469,3.676,244.9,7.341,1.291,15.26,105.6385,13.71,14.86,11.3,0,110.3,13.34,14.51,206.9
"2009-03-02 01:44:00",674470,2.553,241.3,1.618,0.038,13.2,105.6393,13.71,14.77,11.23,0,110.3,13.38,14.51,203.3
"2009-03-02 01:44:30",674471,2.435,242.2,1.125,0.072,13.11,105.6373,13.7,14.7,11.15,0,110.3,13.37,14.50,204.2
"2009-03-02 01:45:00",674472,2.458,244.8,1.537,0.133,13.3,105.6362,13.7,14.72,11.15,0,110.3,13.38,14.50,206.8
"2009-03-02 01:45:30",674473,2.357,249,2.294,0.071,13.7,105.6323,13.69,14.71,11.15,0,110.3,13.38,14.49,211.0
"2009-03-02 01:46:00",674474,2.216,246.6,2.05,0.077,13.99,105.6309,13.69,14.72,11.16,0,110.3,13.38,14.49,208.6
"2009-03-02 01:46:30",674475,2.463,251.6,2.046,0.134,14.08,105.6272,13.68,14.71,11.17,0,110.3,13.38,14.48,213.6
"2009-03-02 01:47:00",674476,2.572,256.6,1.165,0.102,14.28,105.6249,13.67,14.71,11.15,0,110.3,13.38,14.47,218.6
"2009-03-02 01:47:30",674477,2.601,255.7,1.454,0.074,14.4,105.6238,13.67,14.7,11.13,0,110.3,13.38,14.47,217.7
"2009-03-02 01:48:00",674478,2.564,257,1.331,0.035,14.49,105.6238,13.67,14.71,11.14,0,110.3,13.38,14.47,219.0